Sigla Aeroporto Press.
(hPa)
Vento
(°)/(Km/h)
T
(C)
Td
(C)
Umid.
Rel.
(%)
Visibilidade
(Km)
Nebulosidade Condições do Tempo Horário
Medição
SBAA CONCEIÇÃO ARAGUAIA BRASIL 1011 360/11.1 - - - >= 10 Predominantemente claro trovoadas sem precipitaçoes 2019-01-18 17:00 GMT
SBAF AFONSOS ARPT (MIL) BRASIL 1012 220/20.4 35 22 47 >= 10 Parcialmente nublado - 2019-01-18 17:00 GMT
SBAM AMAPA AIRPORT BRASIL 1009 Ventos calmos 31 22 58 >= 10 Parcialmente nublado - 2011-10-13 18:00 GMT
SBAN ANAPOLIS (BRAZ-AFB) BRASIL 1019 70/13 26 16 54 8.0 Predominantemente claro pancadas nas vizinhanças 2019-01-18 17:00 GMT
SBAR ARACAJU/SANTA MARIA BRASIL 1013 110/22.2 31 20 52 >= 10 Parcialmente nublado - 2019-01-18 17:00 GMT
SBAT ALTA FLORESTA BRASIL 1013 360/3.7 30 23 66 >= 10 Predominantemente claro - 2019-01-18 17:00 GMT
SBAU ARAÇATUBA BRASIL 1016 Ventos calmos 25 21 78 >= 10 - - 2019-01-18 08:00 GMT
SBBE BELEM/VAL DE CAES BRASIL 1011 350/11.1 29 25 79 >= 10 Predominantemente claro - 2019-01-18 17:00 GMT
SBBG BAGE/CMDT KRAEMER BRASIL 1012 120/14.8 23 21 88 >= 10 Encoberto chuva leve 2019-01-18 17:00 GMT
SBBH BELO HORIZ/PAMPULHA BRASIL 1017 50/13 33 15 33 >= 10 Nublado - 2019-01-18 17:00 GMT
SBBI CURITIBA/BACACHERI BRASIL 1019 290/9.3 28 19 58 >= 10 Nublado - 2019-01-18 17:00 GMT
SBBQ BARBACENA (CIV/MIL) BRASIL 1020 30/11.1 30 17 45 >= 10 Parcialmente nublado - 2019-01-18 17:00 GMT
SBBR BRASILIA (CIV/MIL) BRASIL 1019 100/11.1 31 19 48 >= 10 Predominantemente claro - 2019-01-18 17:00 GMT
SBBU BAURU BRASIL 1016 330/20.4 29 22 66 >= 10 Predominantemente claro trovoadas sem precipitaçoes e pancadas nas vizinhanças 2019-01-18 17:00 GMT
SBBV BOA VISTA (CIV/MIL) BRASIL 1013 100/27.8 33 18 41 >= 10 Nublado - 2019-01-18 17:00 GMT
SBBW BERRA DO GARCAS BRASIL 1016 300/9.3 28 23 74 >= 10 Nublado - 2019-01-18 17:00 GMT
SBCB SAO PAULO/CUMBIC AB BRASIL 1012 110/16.7 29 23 70 >= 10 - - 2019-01-18 17:00 GMT
SBCC CACHIMBO BRASIL 1014 90/11.1 24 21 83 >= 10 Parcialmente nublado - 2019-01-18 17:00 GMT
SBCF BELO HORIZ/TANCREDO BRASIL 1017 300/7.4 30 16 42 >= 10 Parcialmente nublado - 2019-01-18 17:00 GMT
SBCG CAMPO GRANDE INTL BRASIL 1016 320/16.7 30 21 58 >= 10 Nublado - 2019-01-18 17:00 GMT
SBCI CAROLINA AIRPORT BRASIL 1012 10/7.4 33 26 66 >= 10 Parcialmente nublado - 2019-01-18 17:00 GMT
SBCJ CARAJAS/MARABA BRASIL 1015 50/11.1 27 22 74 >= 10 Parcialmente nublado - 2019-01-18 17:00 GMT
SBCO PORTO ALEGRE/CANOAS BRASIL 1011 150/14.8 28 23 74 >= 10 Nublado - 2019-01-18 17:00 GMT
SBCP CAMPOS/BARTOLOMEU BRASIL 1011 80/29.6 33 21 49 >= 10 Predominantemente claro - 2019-01-18 17:00 GMT
SBCR CORUMBA INTL ARPT BRASIL 1012 90/16.7 29 21 62 8.0 Predominantemente claro trovoadas sem precipitaçoes e pancadas nas vizinhanças 2019-01-18 17:00 GMT
SBCT CURITIBA/AFONSO PENA BRASIL 1018 290/11.1 28 19 58 >= 10 Parcialmente nublado - 2019-01-18 17:00 GMT
SBCV CARAVELAS AIRPORT BRASIL 1012 20/18.5 25 22 83 >= 10 - - 2008-10-27 22:00 GMT
SBCY CUIABA/MARECHAL RON BRASIL - 220/25.9 29 20 58 >= 10 Nublado trovoadas sem precipitaçoes 2019-01-18 17:25 GMT
SBCZ CRUZEIRO DO SUL BRASIL 1015 230/1.9 29 23 70 >= 10 Nublado - 2019-01-18 17:00 GMT
SBDN PRESIDENTE PRUDENTE BRASIL 1016 Ventos calmos 30 19 51 >= 10 Nublado - 2019-01-18 17:00 GMT
SBEG EDUARDO GOMES INTL BRASIL 1012 100/13 29 24 74 >= 10 Predominantemente claro pancadas nas vizinhanças 2019-01-18 17:00 GMT
SBEK JACAREACANGA BRASIL 1011 Ventos calmos 32 26 70 >= 10 Predominantemente claro - 2019-01-18 17:00 GMT
SBES SAO PEDRO DA ALDEIA BRASIL 1012 140/14.8 34 21 46 >= 10 Predominantemente claro - 2019-01-18 17:00 GMT
SBFI FOZ DO IGUACU ARPT BRASIL 1012 40/14.8 30 24 70 >= 10 Nublado - 2019-01-18 17:17 GMT
SBFL FLORIANOPOLIS ARPT BRASIL 1013 120/7.4 29 24 74 >= 10 Parcialmente nublado - 2019-01-18 17:00 GMT
SBFN FERNANDO DE NORONHA BRASIL 1011 130/18.5 30 25 74 >= 10 Parcialmente nublado - 2019-01-18 17:00 GMT
SBFZ FORTALEZA/PINTO MAR BRASIL 1011 100/14.8 28 25 83 >= 10 Nublado - 2019-01-18 17:00 GMT
SBGL GALEAO/RIO(CIV/MIL) BRASIL 1011 120/22.2 34 24 56 >= 10 Predominantemente claro - 2019-01-18 17:00 GMT
SBGO GOIANIA/SANTA GENOV BRASIL 1017 150/13 30 19 51 >= 10 Predominantemente claro - 2019-01-18 17:00 GMT
SBGP GUARAPUAVA BRASIL 1014 330/14.8 27 21 69 >= 10 Nublado - 2013-01-25 13:00 GMT
SBGR GUARULHOS (CIV/MIL) BRASIL 1016 310/16.7 31 20 52 >= 10 Parcialmente nublado trovoadas sem precipitaçoes 2019-01-18 17:00 GMT
SBGW GUARATINGUETA (MIL) BRASIL 1014 50/1.9 33 21 49 >= 10 Predominantemente claro - 2019-01-18 17:00 GMT
SBHT ALTAMIRA BRASIL 1012 120/7.4 30 25 74 >= 10 Nublado - 2019-01-18 17:00 GMT
SBIC ITACOATIARA BRASIL 1013 100/11.1 31 25 70 >= 10 Parcialmente nublado - 2019-01-18 16:00 GMT
SBIH ITAITUBA BRASIL 1012 120/9.3 30 26 79 >= 10 Predominantemente claro trovoadas sem precipitaçoes e pancadas nas vizinhanças 2019-01-18 16:00 GMT
SBIL ILHEUS AIRPORT BRASIL 1015 100/13 30 22 62 >= 10 Predominantemente claro - 2019-01-18 16:00 GMT
SBIZ IMPERATRIZE BRASIL 1010 60/7.4 33 23 55 >= 10 Parcialmente nublado - 2019-01-18 17:00 GMT
SBJF JUIZ FORA/FRANCISCO BRASIL 1022 360/5.6 15 13 87 >= 10 - - 2017-08-08 01:00 GMT
SBJP JOAO PESSOA/PRES CA BRASIL 1012 100/27.8 31 21 55 >= 10 Predominantemente claro - 2019-01-18 17:00 GMT
SBJR RIO/JACAREPAGUA BRASIL 1012 180/7.4 32 25 66 >= 10 Predominantemente claro - 2019-01-18 17:00 GMT
SBJV JOINVILLE BRASIL 1012 130/18.5 31 25 70 >= 10 Nublado - 2019-01-18 17:00 GMT
SBKG CAMPINA GRANDE BRASIL 1014 160/16.7 32 19 46 >= 10 - - 2019-01-18 16:00 GMT
SBKP CAMPINAS/VIRACOPOS BRASIL 1015 290/14.8 32 18 43 >= 10 Parcialmente nublado - 2019-01-18 17:00 GMT
SBLB LABREA-IN-AMAZONAS BRASIL 1014 - - - - >= 10 Predominantemente claro - 2019-01-18 16:00 GMT
SBLN LINS BRASIL 1012 90/18.5 22 21 94 5.0 Nublado trovoadas com chuva leve 2008-01-11 08:00 GMT
SBLO LONDRINA AIRPORT BRASIL 1017 360/3.7 31 22 58 >= 10 Predominantemente claro - 2019-01-18 17:00 GMT
SBLP BOM JESUS DA LAPA BRASIL - 180/18.5 37 17 30 >= 10 Predominantemente claro - 2019-01-18 16:00 GMT
SBLS LAGOA SANTA(CV/MIL) BRASIL 1017 120/9.3 30 18 48 >= 10 Predominantemente claro - 2019-01-18 17:00 GMT
SBMA MARABA BRASIL 1011 360/7.4 31 24 66 >= 10 Parcialmente nublado - 2019-01-18 17:00 GMT
SBMD MONTE DOURADO BRASIL 1012 130/9.3 32 24 62 >= 10 Parcialmente nublado - 2019-01-18 17:00 GMT
SBME MACAE BRASIL 1012 100/18.5 32 22 55 >= 10 Predominantemente claro - 2019-01-18 17:00 GMT
SBMG MARINGA BRASIL 1015 10/11.1 31 23 62 >= 10 Parcialmente nublado pancadas nas vizinhanças 2019-01-18 17:00 GMT
SBMK MONTES CLAROS BRASIL 1016 -/13 33 13 29 >= 10 Parcialmente nublado - 2019-01-18 17:00 GMT
SBMN MANAUS/PONTA PELADA BRASIL 1012 120/7.4 32 24 62 >= 10 Predominantemente claro pancadas nas vizinhanças 2019-01-18 17:00 GMT
SBMO MACEIO/CAMPO PALMAR BRASIL 1013 90/13 28 22 69 >= 10 Nublado - 2019-01-18 17:00 GMT
SBMQ MACAPA INTL AIRPORT BRASIL 1011 80/14.8 33 24 59 >= 10 Parcialmente nublado - 2019-01-18 17:00 GMT
SBMS MOCORO/17 ROSADO BRASIL 1010 250/7.4 38 23 42 >= 10 Nublado - 2019-01-18 16:00 GMT
SBMT MARTE (CIV/MIL) BRASIL 1016 280/11.1 32 17 40 >= 10 Predominantemente claro trovoadas nas vizinhanças 2019-01-18 17:00 GMT
SBMY MANICORE BRASIL 1014 60/3.7 31 25 70 >= 10 Nublado - 2019-01-18 16:00 GMT
SBNT NATAL/AUGUSTO SEVER BRASIL 1011 110/29.6 31 21 55 >= 10 Predominantemente claro - 2019-01-18 17:00 GMT
SBOI OIAPOQUE BRASIL 1012 70/9.3 28 24 78 >= 10 Nublado - 2019-01-18 17:00 GMT
SBPA PORTO ALEGRE/SALGAD BRASIL 1011 150/13 27 23 78 >= 10 Nublado - 2019-01-18 17:00 GMT
SBPB PARNAIBA AIRPORT BRASIL 1011 70/14.8 26 21 74 >= 10 Nublado - 2019-01-18 17:00 GMT
SBPC POCOS DE CALDAS BRASIL 1020 10/5.6 32 19 46 >= 10 Predominantemente claro - 2019-01-18 17:00 GMT
SBPF PASSO FUNDO/LAURO BRASIL 1015 320/29.6 26 22 78 >= 10 Nublado - 2019-01-18 17:00 GMT
SBPG PARANAGUA BRASIL 1016 330/14.8 30 20 55 >= 10 Nublado - 2019-01-17 17:00 GMT
SBPK PELOTAS BRASIL 1013 70/14.8 22 21 94 6.0 Encoberto chuva leve 2019-01-18 17:00 GMT
SBPL PETROLINA AIRPORT BRASIL 1013 140/18.5 34 16 34 >= 10 Parcialmente nublado - 2019-01-18 17:00 GMT
SBPN PORTO NACIONAL ARPT BRASIL 1012 300/9.3 28 24 78 >= 10 - - 2015-11-11 11:15 GMT
SBPP PONTA PORA INTL BRASIL 1016 210/7.4 31 21 55 >= 10 Parcialmente nublado - 2019-01-18 17:00 GMT
SBPV PORTO VELHO(CV/MIL) BRASIL 1012 300/7.4 29 24 74 >= 10 Parcialmente nublado - 2019-01-18 17:00 GMT
SBQU VITORIA DA CONQUIST BRASIL - 360/1.9 - - - >= 10 - - 2008-07-23 03:00 GMT
SBQV VITORIA DA CONQUIST BRASIL 1022 110/18.5 27 11 36 >= 10 Predominantemente claro - 2011-09-12 17:00 GMT
SBRB RIO BRANCO/MEDICI BRASIL 1015 250/9.3 30 23 66 >= 10 Predominantemente claro - 2019-01-18 17:00 GMT
SBRF RECIFE/GUARARAPES BRASIL 1012 110/22.2 29 22 66 >= 10 Predominantemente claro - 2019-01-18 17:00 GMT
SBRJ SANTOS DUMONT/RIO BRASIL 1011 150/18.5 33 23 55 >= 10 Predominantemente claro - 2019-01-18 17:00 GMT
SBRP LEITE LOPES/RIBEIR& BRASIL 1015 320/16.7 32 21 52 >= 10 Parcialmente nublado - 2019-01-18 17:00 GMT
SBSC SANTA CRUZ (MIL) BRASIL 1012 190/16.7 33 23 55 >= 10 Predominantemente claro - 2019-01-18 17:00 GMT
SBSJ SAO JOSE DOS CAMPO& BRASIL 1015 90/7.4 32 20 49 >= 10 Parcialmente nublado - 2019-01-18 17:00 GMT
SBSL SAO LUIS/MARECHAL BRASIL 1011 20/20.4 29 25 79 >= 10 Predominantemente claro - 2019-01-18 17:00 GMT
SBSM SANTA MARIA(CV/MIL) BRASIL 1011 110/11.1 23 22 94 >= 10 Encoberto - 2019-01-18 17:00 GMT
SBSN SANTAREM INTL ARPT BRASIL 1011 60/11.1 29 27 89 >= 10 Predominantemente claro - 2019-01-18 17:00 GMT
SBSP SAO PAULO/CONGONHAS BRASIL 1017 330/14.8 32 18 43 >= 10 Predominantemente claro trovoadas nas vizinhanças 2019-01-18 17:00 GMT
SBST SANTOS (BRAZ-AFB) BRASIL 1012 190/11.1 31 26 74 >= 10 Nublado - 2019-01-18 17:00 GMT
SBSV SALVADOR/DOIS JULHO BRASIL 1014 120/14.8 30 23 66 >= 10 Predominantemente claro - 2019-01-18 17:00 GMT
SBSY SANTA ISABEL MORRO BRASIL 1016 320/18.5 31 20 52 >= 10 - - 2019-01-18 16:00 GMT
SBTA TAUBATE BRASIL 1014 100/7.4 32 18 43 >= 10 Predominantemente claro - 2019-01-18 17:00 GMT
SBTC TAPURUCUARA BRASIL 1016 100/13 30 25 74 >= 10 Parcialmente nublado - 2019-01-18 16:00 GMT
SBTE TERESINA AIRPORT BRASIL 1010 120/5.6 31 24 66 >= 10 Nublado - 2019-01-18 17:00 GMT
SBTF TEFE BRASIL 1012 150/14.8 28 25 83 >= 10 Parcialmente nublado - 2019-01-18 17:00 GMT
SBTK TARAUACA BRASIL 1007 280/5.6 26 23 83 >= 10 Parcialmente nublado - 2018-09-14 21:00 GMT
SBTT TABATINGA INTL ARPT BRASIL 1014 180/7.4 29 23 70 >= 10 Parcialmente nublado - 2019-01-18 17:00 GMT
SBTU TUCURUI BRASIL 1014 70/5.6 - - - >= 10 Parcialmente nublado - 2019-01-18 17:00 GMT
SBUA SAO GABRIEL CACHOEI BRASIL 1012 140/5.6 30 24 70 >= 10 Parcialmente nublado - 2019-01-18 17:00 GMT
SBUF PAULO AFONSO BRASIL 1014 150/7.4 34 17 36 >= 10 Parcialmente nublado - 2019-01-18 16:00 GMT
SBUG URUGUAIANA/RUBEM BRASIL 1013 180/22.2 23 21 88 >= 10 Encoberto - 2019-01-18 17:00 GMT
SBUL UBERLANDIA BRASIL 1019 40/7.4 28 13 39 >= 10 Predominantemente claro - 2019-01-18 17:00 GMT
SBUP URUBUPUNGA/CASTILHO BRASIL 1011 270/16.7 25 20 73 >= 10 Encoberto trovoadas sem precipitaçoes 2007-11-07 22:00 GMT
SBUR UBERABA BRASIL 1018 250/5.6 31 17 43 >= 10 Parcialmente nublado - 2019-01-18 17:00 GMT
SBVH VILHENA BRASIL 1016 290/13 25 22 83 9.03.0 ao Leste Nublado trovoadas sem precipitaçoes e pancadas de chuva leve 2019-01-18 17:00 GMT
SBVT VITORIA/GOIABEIRAS BRASIL 1013 50/29.6 32 22 55 >= 10 - - 2019-01-18 17:00 GMT
SBYA IAUARETE (PRIVATE) BRASIL 1008 230/5.6 31 23 62 >= 10 Parcialmente nublado - 2015-11-06 19:00 GMT
SBYS PIRASSUNUNGA/CAMPO BRASIL 1015 320/16.7 32 20 49 >= 10 Predominantemente claro - 2019-01-18 17:00 GMT